Location: Ku?niki
(51.4449°N, 17.8974°E)
Time: 19:24:31
(UTC+00:00)

DMSP B5D1-3 - Pass Details

Date: 18 September 2020
Orbit: 767 x 781 km, 98.5° (Epoch: 22 October)

Event Time Altitude Azimuth Distance (km) Brightness Sun altitude
Rises 17:36:31 0° 16° (NNE) 3,251 7.7 -7.2°
Reaches altitude 10° 17:38:51 10° 19° (NNE) 2,319 6.9 -7.6°
Maximum altitude 17:43:57 68° 103° (ESE) 827 4.5 -8.4°
Drops below altitude 10° 17:49:00 10° 187° (S) 2,304 6.9 -9.1°
Sets 17:51:19 0° 189° (S) 3,227 7.7 -9.5°
